Total_Precipitation_Accumulation
0.29 0.20 0.21 0.24 0.21 0.22 0.35 0.35 0.27 0.12 0.10 0.11 0.12 0.14 0.16 0.17 0.18 0.16 0.14 0.16 0.23 0.27 0.27 0.33 0.41 0.50 0.52 0.49 0.45 0.42 0.47 0.55 0.60 0.64 0.72 0.75 0.75 0.86 1.03 1.00 0.87 0.78 0.74 0.77
0.24 0.16 0.17 0.18 0.14 0.15 0.17 0.15 0.13 0.09 0.09 0.11 0.12 0.11 0.14 0.16 0.18 0.20 0.19 0.19 0.23 0.28 0.28 0.34 0.41 0.50 0.59 0.52 0.47 0.40 0.42 0.49 0.55 0.64 0.77 0.79 0.74 0.78 0.87 0.95 0.91 0.81 0.74 0.72
0.37 0.16 0.31 0.33 0.18 0.17 0.16 0.13 0.15 0.17 0.14 0.11 0.13 0.13 0.16 0.19 0.20 0.22 0.23 0.24 0.25 0.29 0.32 0.38 0.41 0.48 0.57 0.54 0.50 0.42 0.42 0.48 0.53 0.56 0.71 0.77 0.77 0.82 0.83 0.86 0.92 0.92 0.79 0.69
0.61 0.43 0.64 0.27 0.12 0.12 0.13 0.15 0.17 0.16 0.12 0.11 0.13 0.13 0.15 0.20 0.24 0.25 0.25 0.25 0.26 0.30 0.37 0.37 0.39 0.41 0.48 0.50 0.48 0.45 0.45 0.51 0.56 0.53 0.58 0.71 0.80 0.80 0.79 0.79 0.80 0.85 0.81 0.72
0.96 0.67 0.36 0.15 0.12 0.14 0.17 0.19 0.14 0.12 0.10 0.09 0.10 0.10 0.11 0.12 0.17 0.24 0.25 0.25 0.27 0.31 0.35 0.36 0.36 0.35 0.42 0.47 0.46 0.47 0.52 0.55 0.55 0.51 0.51 0.61 0.69 0.76 0.77 0.76 0.70 0.71 0.74 0.73
1.10 0.81 0.35 0.20 0.14 0.11 0.15 0.29 0.15 0.12 0.13 0.11 0.12 0.17 0.14 0.11 0.16 0.23 0.21 0.22 0.25 0.29 0.29 0.32 0.35 0.34 0.40 0.44 0.40 0.44 0.48 0.54 0.51 0.46 0.43 0.44 0.54 0.68 0.74 0.74 0.69 0.67 0.68 0.69
0.92 0.71 0.28 0.19 0.15 0.15 0.29 0.35 0.16 0.13 0.13 0.13 0.15 0.20 0.16 0.14 0.18 0.21 0.17 0.18 0.21 0.24 0.26 0.32 0.35 0.32 0.36 0.42 0.41 0.43 0.46 0.51 0.46 0.43 0.44 0.43 0.49 0.61 0.70 0.77 0.77 0.70 0.66 0.66
0.67 0.75 0.37 0.20 0.22 0.33 0.36 0.20 0.13 0.11 0.11 0.11 0.10 0.09 0.11 0.14 0.18 0.20 0.16 0.15 0.16 0.19 0.22 0.27 0.29 0.29 0.36 0.41 0.42 0.45 0.46 0.43 0.42 0.44 0.46 0.47 0.50 0.57 0.68 0.76 0.80 0.74 0.66 0.63
0.46 0.37 0.24 0.20 0.27 0.28 0.22 0.15 0.10 0.09 0.09 0.09 0.09 0.09 0.12 0.15 0.17 0.20 0.18 0.17 0.17 0.18 0.20 0.24 0.27 0.28 0.34 0.40 0.39 0.42 0.42 0.40 0.39 0.42 0.44 0.46 0.52 0.59 0.68 0.74 0.75 0.72 0.66 0.62
0.30 0.17 0.14 0.15 0.18 0.19 0.15 0.12 0.10 0.10 0.09 0.09 0.10 0.11 0.13 0.16 0.17 0.18 0.18 0.18 0.17 0.19 0.21 0.26 0.28 0.28 0.32 0.37 0.35 0.34 0.35 0.38 0.37 0.40 0.45 0.48 0.53 0.57 0.63 0.71 0.76 0.68 0.62 0.59
0.27 0.14 0.13 0.13 0.14 0.15 0.13 0.11 0.10 0.11 0.10 0.09 0.10 0.12 0.13 0.16 0.17 0.18 0.21 0.20 0.19 0.20 0.21 0.27 0.30 0.32 0.34 0.32 0.31 0.31 0.31 0.37 0.42 0.44 0.48 0.52 0.54 0.55 0.59 0.60 0.72 0.70 0.60 0.59
0.24 0.16 0.18 0.17 0.15 0.14 0.13 0.13 0.13 0.12 0.12 0.10 0.12 0.15 0.14 0.15 0.16 0.18 0.22 0.23 0.21 0.21 0.23 0.28 0.31 0.37 0.37 0.30 0.27 0.29 0.34 0.38 0.45 0.49 0.49 0.50 0.49 0.51 0.57 0.59 0.63 0.62 0.57 0.58
0.14 0.14 0.15 0.15 0.12 0.12 0.12 0.12 0.12 0.12 0.12 0.12 0.12 0.14 0.17 0.17 0.17 0.18 0.21 0.25 0.27 0.26 0.28 0.30 0.33 0.39 0.37 0.30 0.25 0.26 0.32 0.37 0.42 0.49 0.47 0.43 0.42 0.43 0.48 0.58 0.66 0.65 0.61 0.58
0.09 0.11 0.12 0.10 0.09 0.09 0.09 0.10 0.09 0.09 0.10 0.11 0.11 0.12 0.16 0.16 0.15 0.16 0.20 0.25 0.29 0.28 0.28 0.31 0.32 0.36 0.35 0.29 0.26 0.26 0.30 0.35 0.38 0.41 0.43 0.42 0.41 0.42 0.42 0.48 0.58 0.62 0.64 0.62
0.06 0.07 0.08 0.06 0.05 0.05 0.06 0.06 0.07 0.07 0.08 0.08 0.09 0.10 0.13 0.16 0.16 0.18 0.21 0.26 0.29 0.28 0.27 0.30 0.34 0.39 0.37 0.29 0.27 0.27 0.31 0.31 0.30 0.34 0.39 0.42 0.43 0.45 0.46 0.47 0.50 0.54 0.59 0.70
0.07 0.07 0.07 0.06 0.05 0.05 0.06 0.06 0.07 0.07 0.07 0.07 0.08 0.09 0.11 0.14 0.17 0.20 0.23 0.25 0.28 0.29 0.30 0.32 0.36 0.40 0.38 0.31 0.29 0.29 0.33 0.38 0.33 0.34 0.39 0.43 0.45 0.49 0.53 0.55 0.57 0.57 0.59 0.65
0.11 0.11 0.10 0.09 0.07 0.06 0.06 0.06 0.06 0.06 0.07 0.07 0.08 0.08 0.09 0.11 0.14 0.18 0.21 0.24 0.26 0.27 0.28 0.30 0.34 0.38 0.38 0.36 0.33 0.32 0.34 0.38 0.41 0.37 0.37 0.41 0.46 0.50 0.55 0.60 0.62 0.59 0.55 0.62
0.14 0.13 0.10 0.10 0.09 0.07 0.06 0.05 0.05 0.06 0.08 0.08 0.09 0.10 0.10 0.13 0.16 0.20 0.23 0.25 0.25 0.29 0.32 0.32 0.34 0.37 0.39 0.41 0.38 0.35 0.36 0.38 0.38 0.37 0.39 0.43 0.48 0.51 0.57 0.61 0.61 0.62 0.61 0.67
0.11 0.11 0.09 0.09 0.09 0.07 0.07 0.07 0.07 0.07 0.08 0.08 0.09 0.10 0.11 0.14 0.17 0.20 0.24 0.25 0.26 0.28 0.33 0.35 0.40 0.38 0.39 0.43 0.43 0.38 0.39 0.40 0.42 0.40 0.41 0.52 0.55 0.52 0.56 0.61 0.64 0.66 0.67 0.70
0.11 0.10 0.08 0.08 0.08 0.08 0.09 0.09 0.08 0.07 0.07 0.08 0.10 0.10 0.11 0.14 0.17 0.20 0.23 0.25 0.26 0.29 0.32 0.36 0.38 0.37 0.38 0.44 0.48 0.42 0.44 0.47 0.47 0.44 0.45 0.51 0.56 0.58 0.59 0.62 0.66 0.69 0.69 0.70
0.10 0.09 0.08 0.07 0.07 0.08 0.09 0.10 0.09 0.08 0.08 0.09 0.12 0.14 0.15 0.17 0.19 0.21 0.22 0.22 0.24 0.28 0.31 0.35 0.35 0.35 0.36 0.45 0.53 0.48 0.48 0.48 0.49 0.48 0.49 0.51 0.57 0.61 0.63 0.63 0.66 0.68 0.69 0.71
0.10 0.10 0.09 0.08 0.08 0.10 0.11 0.12 0.12 0.11 0.11 0.11 0.13 0.15 0.16 0.18 0.18 0.20 0.21 0.22 0.24 0.30 0.31 0.31 0.30 0.35 0.41 0.48 0.49 0.48 0.47 0.48 0.49 0.51 0.53 0.54 0.60 0.66 0.64 0.63 0.68 0.68 0.69 0.70
0.11 0.11 0.12 0.13 0.14 0.15 0.14 0.13 0.13 0.14 0.14 0.14 0.16 0.18 0.19 0.21 0.21 0.22 0.24 0.25 0.28 0.34 0.33 0.32 0.35 0.41 0.49 0.48 0.46 0.48 0.48 0.49 0.50 0.53 0.56 0.58 0.61 0.65 0.66 0.66 0.68 0.69 0.73 0.74
0.14 0.13 0.14 0.15 0.16 0.17 0.15 0.14 0.15 0.17 0.18 0.19 0.19 0.20 0.22 0.23 0.22 0.23 0.26 0.32 0.36 0.38 0.36 0.39 0.43 0.46 0.52 0.48 0.47 0.49 0.53 0.55 0.56 0.60 0.63 0.64 0.66 0.68 0.67 0.67 0.68 0.68 0.71 0.73
0.17 0.16 0.15 0.16 0.18 0.20 0.20 0.18 0.17 0.18 0.19 0.21 0.21 0.21 0.24 0.27 0.29 0.29 0.30 0.34 0.38 0.41 0.40 0.45 0.48 0.50 0.50 0.51 0.52 0.55 0.60 0.62 0.67 0.75 0.76 0.72 0.70 0.70 0.67 0.64 0.68 0.71 0.72 0.71
0.21 0.21 0.21 0.21 0.23 0.23 0.22 0.21 0.20 0.20 0.19 0.21 0.23 0.25 0.28 0.30 0.32 0.33 0.34 0.37 0.39 0.43 0.43 0.44 0.47 0.51 0.53 0.58 0.61 0.63 0.68 0.72 0.75 0.74 0.70 0.68 0.67 0.67 0.65 0.64 0.66 0.70 0.71 0.70
0.25 0.24 0.24 0.25 0.26 0.26 0.27 0.27 0.28 0.28 0.27 0.29 0.31 0.31 0.32 0.34 0.37 0.39 0.40 0.41 0.42 0.44 0.46 0.48 0.51 0.57 0.62 0.65 0.69 0.72 0.75 0.75 0.76 0.75 0.71 0.70 0.69 0.67 0.65 0.66 0.68 0.69 0.69 0.66